默认 日期 大小 文件数 浏览量 最新下载 xml
starter磁力链接相关资源由用户搜索指令自动获取,结果来源于网络,本站不存储任何资料,亦不承担任何责任,请于24小时内删除,搜索到1426个磁力,用时1ms。
    {"Provided by PornRips.to.nfo": 47, "Princess.Lexie.Presents.Princess.Lexie.CEI.Starter.Pack.XXX.1080p.HEVC.x265.PRT.mp4": 101083054}
创建时间: 2023-01-29 08:38:46 大小:96.4 MB 文件数量:2 热度:4 最近下载:2025-01-13 01:54:05
    {"elohim.nfo": 1456, "file_id.diz": 106, "Packt.Instant.Munin.Plugin.Starter.2013.RETAIL.eBook-ELOHiM.pdf": 1856518}
创建时间: 2023-01-29 05:31:11 大小:1.77 MB 文件数量:3 热度:3 最近下载:2025-02-05 04:23:01
    ... Dungeon Boonies Moved to a Starter Town v01 (2020) (Digital) (1r0n ... Dungeon Boonies Moved to a Starter Town v02 (2020) (Digital) ( ... Dungeon Boonies Moved to a Starter Town v03 (2020) (Digital) ( ... Dungeon Boonies Moved to a Starter Town v04 (2021) (Digital) ( ...
创建时间: 2023-01-25 08:41:59 大小:978.57 MB 文件数量:7 热度:7 最近下载:2025-09-20 07:48:01
    ... Dungeon Boonies Moved to a Starter Town v01 [Yen Press] [LuCaZ ... Dungeon Boonies Moved to a Starter Town v02 [Yen Press] [LuCaZ ... Dungeon Boonies Moved to a Starter Town v03 [Yen Press] [LuCaZ ... Dungeon Boonies Moved to a Starter Town v04 [Yen Press] [LuCaZ ...
创建时间: 2023-01-25 05:10:58 大小:147.5 MB 文件数量:11 热度:6 最近下载:2025-09-16 15:57:05
    {"~Get Your Files Here !": {"AllThePops.aep.aep": 2638788, "01 Introduction.mp4": 14656714, "Bonus Resources.txt": 386, "02 Class Overview.mp4": 13998821, "01 Introduction.de.srt": 452, "01 Introduction.de.vtt": 4208, "01 Introduction.fr.srt": 2714, "01 ...
创建时间: 2023-01-17 22:14:18 大小:716.71 MB 文件数量:147 热度:8 最近下载:2025-10-13 00:33:01
    {"32 Цикл FOR.mp4": 64628999, "37 Методы.mp4": 296038718, "4 Консоль.mp4": 249549126, "29 Цикл WHILE.mp4": 280539840, "30 Массивы.mp4": 290370220, "5 Алгоритм.mp4": 320288188, "40 Рекурсия.mp4": 248776976, "23 Константы.mp4": 141216479, "24 Ветвление.mp4": ...
创建时间: 2023-01-12 17:37:13 大小:8.98 GB 文件数量:44 热度:5 最近下载:2025-02-12 23:47:01
    ... Freedoom V21 - Hell on Earth Starter Pack.7z": 735487305, "brutal-freedoom ... -v21-hell-on-earth-starter-pack_meta.xml": 1083, "brutal-freedoom ... -v21-hell-on-earth-starter-pack_meta.sqlite": 20480}
创建时间: 2023-01-09 21:37:48 大小:701.82 MB 文件数量:6 热度:8 最近下载:2025-08-06 22:26:01
    {"cover.jpg": 91925, "09-fire_starter_-_mdma-eup.mp3": 19319163, "01-fire_starter_-_mantra-eup.mp3": 15510510, "04-fire_starter_-_impact-eup.mp3": 19774739, "08-fire_starter_-_inferno-eup.mp3": 18077824, "06-fire_starter_-_moonlanding-eup.mp3": 18899114, " ...
创建时间: 2023-01-06 07:09:30 大小:159.27 MB 文件数量:11 热度:3 最近下载:2025-02-08 01:20:09
    ... ": 122, "3DMGAME-San12.VS.CB.Starter-3DM.rar": 564841552, "2012年 ...
创建时间: 2023-01-04 17:18:52 大小:538.68 MB 文件数量:6 热度:4 最近下载:2025-01-26 14:31:04
    {"Starter Kit Scenarios.pdf": 4320003, "Torrent downloaded from Demonoid.com.txt": 47}
创建时间: 2023-01-04 09:40:36 大小:4.12 MB 文件数量:2 热度:4 最近下载:2025-02-06 11:20:05
    {"Windows 7 Starter K with Service Pack 1 ( ... )": {"ko_windows_7_starter_k_with_sp1_x86_dvd_u_678554.iso": 2507954176}, "Windows 7 Starter KN with Service Pack 1 ...
创建时间: 2023-01-04 06:50:00 大小:4.4 GB 文件数量:2 热度:3 最近下载:2025-02-09 08:31:05
    {"Read Me.txt": 239, "Free eBooks Downlaod.url": 133, "Auction Templates Starter Kit (2006)": {"ProgrammersHeaven.tk.url": 138, "allfreebooks.0fees.net.url": 134, "Auction Templates Starter Kit (2006).chm": 18956412}}
创建时间: 2023-01-03 22:29:45 大小:18.08 MB 文件数量:5 热度:4 最近下载:2025-01-21 02:14:07
    {"~Get Your Files Here !": {"3. 2. Diodes": {"1. 2.1 PN Junction.mp4": 51530554, "3. 2.2 Reverse Bias.mp4": 68145407, "4. 2.3 Forward Bias.mp4": 58059239, "2. 2.1.1 PN Junction - Example.mp4": 30004247, "5. 2.4 Ideal Voltage-Current Relationship for a PN ...
创建时间: 2022-12-29 21:44:43 大小:1.04 GB 文件数量:18 热度:3 最近下载:2025-02-23 03:29:03
    {"~Get Your Files Here !": {"1 - Guitar Basics": {"4 - Reading-Tab.pdf": 19540, "7 - Open-Chords.pdf": 21296, "14 - Barre Chords.mp4": 401305077, "14 - Barre-Chords.pdf": 12397, "16 - Going Forward.mp4": 136348734, "9 - The-Major-Scale.pdf": 19507, "15 - ...
创建时间: 2022-12-29 15:51:43 大小:3.52 GB 文件数量:53 热度:5 最近下载:2025-01-13 04:52:05
    {"Evening Starter v.1.01.zip": 711369638, "1537715141_evening-starter-1_100.jpg": 61320, "1537715059_evening-starter-1_100-5.jpeg": 20899, "1537715100_evening-starter-1_100-1.jpeg": 16809, "1537715146_evening-starter-1_100-664.jpeg": 22022}
创建时间: 2022-12-24 20:37:53 大小:678.53 MB 文件数量:5 热度:5 最近下载:2025-03-03 17:55:03
    ... .ogg": 552735}, "English in Mind Starter Workbook.pdf": 11909851, "English in ... Mind Starter Student's Book.pdf": 13503441 ... , "English in Mind Starter Teacher's Book.pdf": 5323466}
创建时间: 2022-12-22 05:52:47 大小:50.23 MB 文件数量:57 热度:5 最近下载:2025-09-02 23:42:01
    {".____padding_file": {"0": 1310720, "1": 2076672, "2": 2096362}, "Windows 7 Starter x64 SP1.iso": 3133931520, "windows-7-starter-x-64-sp-1_meta.xml": 790, "windows-7-starter-x-64-sp-1_meta.sqlite": 20480}
创建时间: 2022-12-17 20:35:32 大小:2.92 GB 文件数量:6 热度:3 最近下载:2025-01-25 14:36:04
    {"RARBG.avi": 1190542, "RARBG.txt": 30, "Starter.For.Ten.2006.BRRip.XviD.MP3-RARBG.avi": 1302012898, "Starter.For.Ten.2006.BRRip.XviD.MP3-RARBG.nfo": 3109}
创建时间: 2022-12-17 19:43:47 大小:1.21 GB 文件数量:4 热度:4 最近下载:2025-01-24 20:34:02
    ... ][头号前妻.The Starter Wife S01E03].rmvb": 185261039, "[破 ... ][头号前妻.The Starter Wife S01E04].rmvb": 177229661, "[破 ... ][头号前妻.The Starter Wife S01E05].rmvb": 175114323, "[破 ... ][头号前妻.The Starter Wife S01E06].rmvb": 181838798, "[破 ... ][头号前妻.The Starter Wife S01E01-02].rmvb": ...
创建时间: 2022-12-14 17:58:51 大小:1.01 GB 文件数量:6 热度:24 最近下载:2025-10-17 09:22:02
    {"Starter_Kit_Textures.7z": 377306147, "catalog_Starter_Kit.pdf": 3025293, "Starter_Kit_Scene_Files.7z": 76958688, "Starter_Kit_Textures_PNG.7z": 118100072}
创建时间: 2022-12-13 07:52:43 大小:548.73 MB 文件数量:4 热度:3 最近下载:2025-01-20 02:56:02